| time (UTC) | temp C | wind direction | speed KPH | gust KPH | rain 1hr cm | rain 24hr cm | rain mn cm | humidity % | barometer mb |
| 20260507213025 | 7 | 240 | 1.6 | 3.2 | 0.00 | 0.03 | 0.03 | 83 | 1012.0 |
| 20260507211511 | 7 | 240 | 0.0 | 1.6 | 0.00 | 0.03 | 0.03 | 84 | 1012.1 |
| 20260507210024 | 7 | 240 | 0.0 | 3.2 | 0.00 | 0.03 | 0.03 | 82 | 1012.0 |
| 20260507204509 | 7 | 240 | 1.6 | 3.2 | 0.00 | 0.03 | 0.03 | 82 | 1011.8 |
| 20260507203017 | 7 | 240 | 0.0 | 3.2 | 0.00 | 0.03 | 0.03 | 81 | 1011.7 |
| 20260507201514 | 7 | 240 | 1.6 | 3.2 | 0.00 | 0.03 | 0.03 | 81 | 1011.7 |
| 20260507200019 | 7 | 240 | 1.6 | 4.8 | 0.00 | 0.03 | 0.03 | 79 | 1011.5 |
| 20260507194508 | 7 | 240 | 0.0 | 3.2 | 0.00 | 0.03 | 0.03 | 78 | 1011.2 |
| 20260507193012 | 8 | 240 | 0.0 | 1.6 | 0.00 | 0.03 | 0.03 | 77 | 1011.0 |
| 20260507191519 | 8 | 240 | 0.0 | 3.2 | 0.00 | 0.03 | 0.03 | 76 | 1010.9 |
| 20260507190007 | 8 | 240 | 0.0 | 6.4 | 0.00 | 0.03 | 0.03 | 73 | 1010.7 |
| 20260507184506 | 9 | 266 | 4.8 | 19.3 | 0.00 | 0.03 | 0.03 | 69 | 1010.6 |
| 20260507183006 | 10 | 306 | 8.0 | 16.1 | 0.00 | 0.03 | 0.03 | 67 | 1010.5 |
| 20260507181506 | 10 | 296 | 9.7 | 24.1 | 0.00 | 0.03 | 0.03 | 66 | 1010.2 |
| 20260507180005 | 10 | 342 | 9.7 | 17.7 | 0.00 | 0.03 | 0.03 | 66 | 1010.2 |
| 20260507174504 | 10 | 355 | 9.7 | 16.1 | 0.00 | 0.03 | 0.03 | 64 | 1010.1 |
| 20260507173013 | 10 | 333 | 6.4 | 17.7 | 0.00 | 0.03 | 0.03 | 63 | 1010.2 |
| 20260507171503 | 11 | 309 | 9.7 | 19.3 | 0.00 | 0.03 | 0.03 | 63 | 1010.1 |
| 20260507170003 | 11 | 233 | 11.3 | 24.1 | 0.00 | 0.03 | 0.03 | 61 | 1010.1 |
| 20260507164502 | 11 | 288 | 9.7 | 25.7 | 0.00 | 0.03 | 0.03 | 59 | 1010.1 |
| 20260507163002 | 12 | 309 | 8.0 | 22.5 | 0.00 | 0.03 | 0.03 | 58 | 1010.2 |
| 20260507161502 | 12 | 323 | 8.0 | 17.7 | 0.00 | 0.03 | 0.03 | 54 | 1010.2 |
| 20260507160002 | 12 | 319 | 6.4 | 22.5 | 0.00 | 0.03 | 0.03 | 58 | 1010.3 |
| 20260507154601 | 13 | 266 | 9.7 | 25.7 | 0.00 | 0.05 | 0.03 | 55 | 1010.2 |
| 20260507153102 | 12 | 327 | 8.0 | 29.0 | 0.00 | 0.05 | 0.03 | 58 | 1010.2 |
| 20260507151558 | 12 | 311 | 11.3 | 24.1 | 0.00 | 0.05 | 0.03 | 61 | 1010.2 |
| 20260507150057 | 13 | 23 | 3.2 | 17.7 | 0.00 | 0.05 | 0.03 | 55 | 1010.3 |
| 20260507144601 | 12 | 273 | 3.2 | 16.1 | 0.00 | 0.05 | 0.03 | 55 | 1010.3 |
| 20260507143059 | 13 | 340 | 8.0 | 17.7 | 0.00 | 0.05 | 0.03 | 52 | 1010.5 |
| 20260507141610 | 13 | 306 | 12.9 | 19.3 | 0.00 | 0.05 | 0.03 | 55 | 1010.5 |
| 20260507140101 | 13 | 194 | 3.2 | 11.3 | 0.00 | 0.05 | 0.03 | 52 | 1010.6 |
| 20260507134601 | 13 | 283 | 6.4 | 16.1 | 0.00 | 0.08 | 0.03 | 54 | 1010.6 |
| 20260507133052 | 13 | 232 | 4.8 | 16.1 | 0.00 | 0.08 | 0.03 | 50 | 1010.7 |
| 20260507131551 | 15 | 202 | 1.6 | 16.1 | 0.00 | 0.08 | 0.03 | 49 | 1010.8 |
| 20260507130051 | 14 | 142 | 3.2 | 19.3 | 0.00 | 0.08 | 0.03 | 55 | 1011.0 |
| 20260507124552 | 15 | 152 | 8.0 | 14.5 | 0.00 | 0.15 | 0.03 | 53 | 1011.3 |
| 20260507123052 | 15 | 167 | 8.0 | 16.1 | 0.00 | 0.15 | 0.03 | 53 | 1011.2 |
| 20260507121547 | 15 | 149 | 3.2 | 12.9 | 0.00 | 0.15 | 0.03 | 48 | 1011.3 |
| 20260507120048 | 15 | 65 | 8.0 | 12.9 | 0.00 | 0.15 | 0.03 | 55 | 1011.4 |
| 20260507114552 | 14 | 68 | 3.2 | 14.5 | 0.00 | 0.28 | 0.03 | 56 | 1011.5 |
| 20260507113043 | 13 | 63 | 6.4 | 12.9 | 0.00 | 0.28 | 0.03 | 53 | 1011.7 |
| 20260507111550 | 13 | 65 | 4.8 | 11.3 | 0.00 | 0.28 | 0.03 | 59 | 1011.7 |
| 20260507110038 | 12 | 71 | 4.8 | 9.7 | 0.00 | 0.28 | 0.03 | 58 | 1011.8 |
| 20260507104535 | 13 | 79 | 1.6 | 9.7 | 0.00 | 0.28 | 0.03 | 56 | 1012.0 |
| 20260507103034 | 12 | 91 | 0.0 | 8.0 | 0.00 | 0.28 | 0.03 | 57 | 1012.0 |
| 20260507101530 | 12 | 135 | 3.2 | 12.9 | 0.00 | 0.28 | 0.03 | 62 | 1012.1 |
| 20260507100032 | 11 | 79 | 1.6 | 11.3 | 0.00 | 0.28 | 0.03 | 69 | 1012.2 |
| 20260507094526 | 12 | 77 | 4.8 | 12.9 | 0.00 | 0.28 | 0.03 | 69 | 1012.1 |
| 20260507093021 | 12 | 83 | 3.2 | 11.3 | 0.00 | 0.28 | 0.03 | 63 | 1012.2 |
| 20260507091517 | 11 | 75 | 1.6 | 12.9 | 0.00 | 0.28 | 0.03 | 64 | 1012.2 |
| 20260507090013 | 10 | 123 | 1.6 | 9.7 | 0.00 | 0.28 | 0.03 | 68 | 1012.2 |
| 20260507084512 | 10 | 65 | 3.2 | 8.0 | 0.00 | 0.28 | 0.03 | 69 | 1012.1 |
| 20260507083005 | 10 | 73 | 1.6 | 11.3 | 0.00 | 0.28 | 0.03 | 65 | 1012.1 |
| 20260507081602 | 10 | 53 | 4.8 | 11.3 | 0.00 | 0.28 | 0.03 | 73 | 1012.3 |
| 20260507080056 | 8 | 89 | 3.2 | 11.3 | 0.03 | 0.28 | 0.03 | 70 | 1012.5 |
| 20260507074556 | 8 | 69 | 1.6 | 8.0 | 0.03 | 0.38 | 0.03 | 66 | 1012.6 |
| 20260507073046 | 8 | 54 | 3.2 | 9.7 | 0.03 | 0.38 | 0.03 | 77 | 1012.5 |
| 20260507071542 | 7 | 74 | 4.8 | 9.7 | 0.03 | 0.38 | 0.03 | 73 | 1012.5 |
| 20260507070042 | 7 | 72 | 0.0 | 9.7 | 0.00 | 0.36 | 0.00 | 75 | 1012.5 |
| 20260507064533 | 7 | 74 | 4.8 | 9.7 | 0.00 | 0.43 | 0.00 | 79 | 1012.4 |
| 20260507063031 | 6 | 79 | 3.2 | 9.7 | 0.00 | 0.43 | 0.00 | 84 | 1012.5 |
| 20260507061527 | 5 | 57 | 3.2 | 8.0 | 0.00 | 0.43 | 0.00 | 86 | 1012.6 |
| 20260507060025 | 4 | 29 | 1.6 | 4.8 | 0.00 | 0.43 | 0.00 | 93 | 1012.7 |
| 20260507054515 | 3 | 348 | 1.6 | 3.2 | 0.00 | 0.51 | 0.00 | 97 | 1012.6 |
| 20260507053012 | 1 | 347 | 0.0 | 3.2 | 0.00 | 0.51 | 0.00 | 97 | 1012.4 |
| 20260507051511 | 1 | 347 | 1.6 | 3.2 | 0.00 | 0.51 | 0.00 | 97 | 1012.4 |
| 20260507050010 | 1 | 347 | 0.0 | 3.2 | 0.00 | 0.51 | 0.00 | 96 | 1012.3 |
| 20260507044507 | 1 | 347 | 0.0 | 3.2 | 0.00 | 0.71 | 0.00 | 96 | 1012.2 |
| 20260507043005 | 1 | 347 | 1.6 | 4.8 | 0.00 | 0.71 | 0.00 | 96 | 1012.0 |
| 20260507041510 | 1 | 350 | 1.6 | 3.2 | 0.00 | 0.71 | 0.00 | 96 | 1011.8 |
| 20260507040002 | 1 | 350 | 0.0 | 1.6 | 0.00 | 0.71 | 0.00 | 96 | 1011.7 |
| 20260507034506 | 1 | 350 | 0.0 | 1.6 | 0.00 | 0.71 | 0.00 | 96 | 1011.6 |
| 20260507033002 | 1 | 350 | 1.6 | 6.4 | 0.00 | 0.71 | 0.00 | 96 | 1011.6 |
| 20260507031605 | 1 | 350 | 1.6 | 3.2 | 0.00 | 0.71 | 0.00 | 96 | 1011.5 |
| 20260507030159 | 1 | 350 | 1.6 | 3.2 | 0.00 | 0.71 | 0.00 | 96 | 1011.5 |
| 20260507024604 | 1 | 350 | 0.0 | 1.6 | 0.00 | 0.71 | 0.00 | 96 | 1011.6 |
| 20260507023110 | 1 | 350 | 0.0 | 3.2 | 0.00 | 0.71 | 0.00 | 96 | 1011.5 |
| 20260507021555 | 1 | 350 | 1.6 | 3.2 | 0.00 | 0.71 | 0.00 | 96 | 1011.5 |
| 20260507020053 | 2 | 350 | 0.0 | 1.6 | 0.00 | 0.71 | 0.00 | 96 | 1011.4 |
| 20260507014604 | 2 | 350 | 0.0 | 1.6 | 0.00 | 0.71 | 0.00 | 96 | 1011.4 |
| 20260507013110 | 2 | 350 | 1.6 | 8.0 | 0.00 | 0.71 | 0.00 | 96 | 1011.3 |
| 20260507011550 | 2 | 350 | 1.6 | 6.4 | 0.00 | 0.71 | 0.00 | 96 | 1011.3 |
| 20260507010049 | 2 | 350 | 3.2 | 6.4 | 0.00 | 0.71 | 0.00 | 96 | 1011.3 |
| 20260507004549 | 2 | 350 | 1.6 | 8.0 | 0.00 | 0.71 | 0.00 | 96 | 1011.3 |
| 20260507003047 | 2 | 350 | 3.2 | 8.0 | 0.00 | 0.71 | 0.00 | 96 | 1011.2 |
| 20260507001606 | 2 | 350 | 1.6 | 4.8 | 0.00 | 0.71 | 0.00 | 96 | 1011.2 |
| 20260507000048 | 2 | 350 | 0.0 | 6.4 | 0.00 | 0.71 | 0.00 | 96 | 1011.1 |
| 20260506234545 | 2 | 350 | 0.0 | 6.4 | 0.00 | 0.76 | 0.00 | 96 | 1011.1 |
| 20260506233046 | 2 | 350 | 1.6 | 3.2 | 0.00 | 0.76 | 0.00 | 96 | 1011.1 |
| 20260506231546 | 2 | 350 | 1.6 | 3.2 | 0.00 | 0.76 | 0.00 | 96 | 1011.1 |
| 20260506230039 | 2 | 350 | 0.0 | 6.4 | 0.00 | 0.76 | 0.00 | 96 | 1011.0 |
| 20260506224537 | 2 | 350 | 0.0 | 3.2 | 0.00 | 0.79 | 0.00 | 96 | 1011.0 |
| 20260506223036 | 2 | 350 | 1.6 | 3.2 | 0.00 | 0.79 | 0.00 | 96 | 1011.0 |
| 20260506221535 | 2 | 350 | 3.2 | 4.8 | 0.00 | 0.79 | 0.00 | 96 | 1011.0 |
| 20260506220031 | 2 | 350 | 0.0 | 3.2 | 0.00 | 0.79 | 0.00 | 96 | 1010.9 |
| 20260506214531 | 2 | 350 | 1.6 | 6.4 | 0.00 | 0.79 | 0.79 | 96 | 1010.9 |